Weather observations for the past three days for
Pine Mountain Harris County Airport
Imperial (Metric)
Date Time (edt) Wind (mph) Vis. (mi.) Weather Sky Cond. Temperature (ºF) Relative Humidity Wind Chill (°F) Heat Index (°F) Pressure Precipitation (in)
Air Dwpt 6 hour altimeter (in) sea level (mb) 1 hr 3 hr 6 hr
Max. Min.
23 14:15 S 7 10.00 A Few Clouds FEW050 87.8 75.2 66% 98 30.12 0.0
23 13:55 SW 12 G 16 10.00 Partly Cloudy FEW039 SCT048 SCT050 87.8 75.2 87.4 73.9 66% 98 30.12 0.0
23 13:35 S 8 10.00 Partly Cloudy FEW028 FEW039 SCT050 86 75.2 70% 95 30.13 0.0
23 13:15 S 7 10.00 A Few Clouds FEW028 FEW055 86 75.2 70% 95 30.13 0.0
23 12:55 S 8 10.00 Partly Cloudy SCT027 SCT038 SCT070 86 75.2 70% 95 30.14 0.0
23 12:35 SW 8 10.00 Mostly Cloudy SCT027 SCT038 BKN050 86 75.2 70% 95 30.15 0.0
23 12:15 Vrbl 7 10.00 Mostly Cloudy BKN021 BKN050 86 75.2 70% 95 30.14 0.0
23 11:55 S 7 10.00 Overcast BKN019 OVC032 84.2 77 79% 94 30.14 0.0
23 11:35 SE 6 10.00 Mostly Cloudy BKN020 BKN025 BKN030 84.2 77 79% 94 30.14 0.0
23 11:15 S 3 10.00 Mostly Cloudy SCT021 BKN026 BKN032 82.4 77 84% 91 30.14 0.0
23 10:55 S 6 10.00 Overcast BKN016 OVC025 80.6 75.2 84% 86 30.14 0.0
23 10:35 S 5 10.00 Mostly Cloudy BKN012 80.6 75.2 84% 86 30.15 0.0
23 10:15 S 3 10.00 Overcast OVC010 80.6 75.2 84% 86 30.14 0.0
23 09:55 S 3 10.00 Mostly Cloudy BKN006 78.8 77 94% 83 30.14 0.0
23 09:35 W 3 10.00 Overcast OVC004 77 75.2 94% 78 30.14 0.0
23 09:15 W 2 10.00 Overcast OVC004 75.2 75.2 100% 73 30.13 0.0
23 08:55 SW 5 10.00 Overcast OVC004 75.2 75.2 100% 73 30.13 0.0
23 08:35 W 6 10.00 Overcast OVC006 75.2 75.2 100% 73 30.13 0.0
23 08:15 Vrbl 2 10.00 Mostly Cloudy BKN008 75.2 73.4 94% 74 30.12 0.0
23 07:55 E 1 10.00 Fair CLR 73.4 73.4 74.5 72.3 100% 30.12 0.0
23 07:35 Calm 10.00 Partly Cloudy SCT020 73.4 73.4 100% 30.12 0.0
23 07:15 S 1 10.00 Overcast OVC022 73.4 73.4 100% 30.12 0.0
23 06:55 S 2 10.00 Mostly Cloudy BKN022 BKN026 73.4 73.4 100% 30.11 0.0
23 06:35 S 2 10.00 A Few Clouds FEW020 73.4 73.4 100% 30.11 0.0
23 06:15 S 2 10.00 Fair CLR 73.4 73.4 100% 30.1 0.0
23 05:55 S 2 10.00 Fair CLR 73.4 73.4 100% 30.1 0.0
23 05:35 S 3 10.00 Fair CLR 73.4 73.4 100% 30.1 0.0
23 05:15 SW 3 10.00 Fair CLR 73.4 73.4 100% 30.09 0.0
23 04:55 SW 3 10.00 A Few Clouds FEW013 FEW050 FEW120 73.4 73.4 100% 30.09 0.0
23 04:35 SW 3 10.00 Partly Cloudy FEW070 FEW100 SCT120 73.4 73.4 100% 30.08 0.0
23 04:15 S 3 10.00 Fair CLR 73.4 73.4 100% 30.07 0.0
23 03:55 S 3 10.00 Fair CLR 73.4 73.4 100% 30.07 0.0
23 03:35 S 3 10.00 Fair CLR 73.4 73.4 100% 30.07 0.0
23 03:15 SW 5 10.00 A Few Clouds FEW030 FEW036 73.4 73.4 100% 30.08 0.0
23 02:55 SW 2 10.00 A Few Clouds FEW024 73.4 73.4 100% 30.08 0.0
23 02:35 SW 3 10.00 Fair CLR 73.4 73.4 100% 30.08 0.0
23 02:15 S 3 10.00 Fair CLR 73.4 73.4 100% 30.09 0.0
23 01:55 SW 5 10.00 Fair CLR 73.4 73.4 82.6 73.6 100% 30.1 0.0
23 01:35 Vrbl 2 10.00 Fair CLR 73.4 73.4 100% 30.1 0.0
23 01:15 SW 3 10.00 Fair CLR 73.4 73.4 100% 30.1 0.0
23 00:55 SW 3 10.00 A Few Clouds FEW034 75.2 73.4 94% 74 30.1 0.0
23 00:35 SW 3 10.00 A Few Clouds FEW034 FEW120 75.2 73.4 94% 74 30.1 0.0
23 00:15 S 3 10.00 Partly Cloudy FEW026 SCT120 75.2 73.4 94% 74 30.1 0.0
22 23:55 S 6 10.00 Fair CLR 75.2 73.4 94% 74 30.1 0.0
22 23:35 S 2 10.00 A Few Clouds FEW028 FEW047 75.2 73.4 94% 74 30.09 0.0
22 23:15 S 3 10.00 Fair CLR 75.2 73.4 94% 74 30.09 0.0
22 22:55 S 3 10.00 Partly Cloudy FEW031 FEW041 SCT055 75.2 73.4 94% 74 30.08 0.0
22 22:35 SW 5 10.00 Partly Cloudy SCT055 SCT070 SCT080 77 73.4 89% 78 30.09 0.0
22 22:15 SW 5 10.00 Mostly Cloudy SCT033 SCT060 BKN070 78.8 73.4 84% 82 30.08 0.0
22 21:55 SW 5 10.00 A Few Clouds FEW055 77 73.4 89% 78 30.07 0.0
22 21:35 SW 2 10.00 Fair CLR 77 75.2 94% 78 30.06 0.0
22 21:15 S 3 10.00 Fair CLR 77 73.4 89% 78 30.06 0.0
22 20:55 S 3 10.00 Fair CLR 78.8 75.2 89% 82 30.05 0.0
22 20:35 SW 6 10.00 Fair CLR 80.6 73.4 79% 85 30.05 0.0
22 20:15 SW 6 10.00 Fair CLR 80.6 77 89% 87 30.05 0.0
22 19:55 S 5 10.00 Fair CLR 82.4 77 85.5 81.7 84% 91 30.04 0.0
22 19:35 S 5 10.00 Fair CLR 82.4 77 84% 91 30.03 0.0
22 19:15 S 3 10.00 Fair CLR 82.4 75.2 79% 89 30.02 0.0
22 18:55 Vrbl 5 10.00 Fair CLR 82.4 75.2 79% 89 30.02 0.0
22 18:35 S 5 10.00 Fair CLR 84.2 75.2 74% 92 30.03 0.0
22 18:15 S 7 10.00 A Few Clouds FEW036 84.2 75.2 74% 92 30.03 0.0
22 17:55 S 7 10.00 Fair CLR 86 73.4 66% 93 30.03 0.0
22 17:35 Vrbl 3 10.00 Fair CLR 84.2 73.4 70% 91 30.03 0.0
22 17:15 S 6 10.00 Fair CLR 84.2 73.4 70% 91 30.03 0.0
22 16:55 S 6 10.00 A Few Clouds FEW095 84.2 73.4 70% 91 30.03 0.0
22 16:35 S 10 10.00 Light Rain SCT030 SCT038 BKN070 82.4 75.2 79% 89 30.04 0.0
22 16:15 SE 6 10.00 Mostly Cloudy SCT032 SCT038 BKN044 84.2 73.4 70% 91 30.04 0.0
22 15:55 SW 5 10.00 Overcast SCT031 BKN043 OVC050 84.2 73.4 70% 91 30.05 0.0
22 15:35 S 5 10.00 Overcast SCT030 BKN039 OVC049 84.2 73.4 70% 91 30.06 0.0
22 15:15 Vrbl 2 10.00 Overcast SCT026 BKN038 OVC055 82.4 73.4 74% 88 30.06 0.0
22 14:55 SW 6 10.00 Mostly Cloudy FEW026 BKN034 BKN042 84.2 73.4 70% 91 30.07 0.0
22 14:35 SW 8 10.00 Mostly Cloudy BKN032 BKN041 84.2 71.6 66% 90 30.08 0.0
22 14:15 S 6 10.00 Mostly Cloudy SCT027 BKN035 84.2 71.6 66% 90 30.08 0.0
22 13:55 SW 6 10.00 Mostly Cloudy BKN023 BKN031 82.4 71.6 83.3 70.9 70% 87 30.09 0.0
22 13:35 Vrbl 5 10.00 Partly Cloudy SCT023 SCT031 82.4 73.4 74% 88 30.1 0.0
22 13:15 Vrbl 5 10.00 A Few Clouds FEW017 82.4 71.6 70% 87 30.1 0.0
22 12:55 Vrbl 1 10.00 A Few Clouds FEW017 80.6 73.4 79% 85 30.1 0.0
22 12:35 NW 3 10.00 A Few Clouds FEW014 78.8 71.6 79% 82 30.11 0.0
22 12:15 W 5 10.00 Partly Cloudy SCT014 78.8 73.4 84% 82 30.11 0.0
22 11:55 Vrbl 3 10.00 Fair CLR 77 71.6 83% 78 30.11 0.0
22 11:35 Vrbl 5 10.00 A Few Clouds FEW013 77 71.6 83% 78 30.12 0.0
22 11:15 SW 6 10.00 A Few Clouds FEW013 77 73.4 89% 78 30.12 0.0
22 10:55 SW 3 10.00 A Few Clouds FEW013 77 73.4 89% 78 30.11 0.0
22 10:35 Vrbl 2 10.00 Fair CLR 77 73.4 89% 78 30.1 0.0
22 10:15 W 5 10.00 A Few Clouds FEW008 75.2 71.6 89% 75 30.11 0.0
22 09:55 SW 2 10.00 Mostly Cloudy BKN008 75.2 71.6 89% 75 30.1 0.0
22 09:35 SE 2 10.00 Mostly Cloudy BKN004 73.4 73.4 100% 30.1 0.0
22 09:15 S 2 10.00 Overcast OVC004 73.4 73.4 100% 30.1 0.0
22 08:55 S 3 10.00 Mostly Cloudy BKN004 73.4 73.4 100% 30.1 0.0
22 08:35 S 3 10.00 Overcast OVC002 71.6 71.6 100% 30.09 0.0
22 08:15 S 3 2.00 Fog/Mist OVC002 71.6 71.6 100% 30.09 0.0
22 07:55 S 3 0.25 Fog OVC002 71.6 71.6 72 70.5 100% 30.08 0.0
22 07:35 SW 2 0.15 Fog OVC002 71.6 71.6 100% 30.07 0.0
22 07:15 SE 1 0.15 Fog OVC002 71.6 71.6 100% 30.06 0.0
22 06:55 Calm 0.15 Fog OVC002 71.6 71.6 100% 30.05 0.0
22 06:35 E 3 0.15 Fog OVC002 71.6 71.6 100% 30.05 0.0
22 06:15 E 2 0.15 Fog OVC002 71.6 71.6 100% 30.05 0.0
22 05:55 N 3 0.15 Fog OVC002 71.6 71.6 100% 30.05 0.0
22 05:35 N 2 0.15 Fog OVC002 71.6 71.6 100% 30.04 0.0
22 05:15 S 2 0.15 Fog OVC002 71.6 71.6 100% 30.04 0.0
22 04:55 SE 3 0.25 Fog OVC002 71.6 71.6 100% 30.04 0.0
22 04:35 SW 2 0.50 Fog OVC002 71.6 71.6 100% 30.04 0.0
22 04:15 W 5 0.25 Fog OVC002 71.6 71.6 100% 30.05 0.0
22 03:55 S 2 0.50 Fog OVC002 71.6 71.6 100% 30.05 0.0
22 03:35 Vrbl 3 0.25 Fog OVC002 71.6 71.6 100% 30.05 0.0
22 03:15 W 6 0.75 Fog/Mist OVC002 71.6 71.6 100% 30.06 0.0
22 02:55 NW 3 10.00 Overcast OVC004 71.6 71.6 100% 30.07 0.0
22 02:35 W 5 10.00 Overcast OVC004 71.6 71.6 100% 30.07 0.0
22 02:15 W 6 10.00 Overcast BKN006 BKN050 OVC070 71.6 71.6 100% 30.07 0.0
22 01:55 S 5 10.00 Overcast FEW047 BKN070 OVC110 71.6 71.6 72 70.5 100% 30.07 0.0
22 01:35 S 6 10.00 Overcast FEW048 SCT070 OVC110 71.6 71.6 100% 30.07 0.0
22 01:15 SE 6 10.00 Mostly Cloudy FEW075 BKN120 71.6 71.6 100% 30.07 0.0
22 00:55 SE 6 10.00 Mostly Cloudy FEW060 FEW075 BKN110 71.6 71.6 100% 30.07 0.0 0.03
22 00:35 SE 5 10.00 Light Rain FEW075 SCT110 71.6 71.6 100% 30.08 0.0
22 00:15 SE 5 6.00 Light Rain Fog/Mist FEW075 FEW120 71.6 71.6 100% 30.1 0.0
21 23:55 S 6 9.00 Light Rain FEW044 SCT070 BKN110 71.6 71.6 100% 30.12 0.0
21 23:35 S 3 10.00 Partly Cloudy SCT110 71.6 71.6 100% 30.11 0.0
21 23:15 S 2 10.00 A Few Clouds FEW090 FEW110 71.6 71.6 100% 30.11 0.0
21 22:55 SE 3 10.00 Mostly Cloudy FEW060 BKN095 BKN110 71.6 71.6 100% 30.1 0.0
21 22:35 SE 3 10.00 Mostly Cloudy SCT029 SCT080 BKN110 71.6 71.6 100% 30.1 0.0
21 22:15 W 3 10.00 Mostly Cloudy BKN033 BKN060 BKN110 71.6 71.6 100% 30.11 0.0
21 21:55 S 3 10.00 Partly Cloudy FEW031 FEW100 SCT120 71.6 71.6 100% 30.1 0.0
21 21:35 E 6 10.00 Mostly Cloudy SCT003 SCT023 BKN100 71.6 71.6 100% 30.08 0.0
21 21:15 S 3 2.50 Light Rain Fog/Mist BKN003 BKN023 OVC070 71.6 71.6 100% 30.08 0.0
21 20:55 S 3 10.00 Mostly Cloudy BKN003 BKN070 BKN110 71.6 71.6 100% 30.07 0.0
21 20:35 S 3 10.00 Mostly Cloudy BKN003 BKN031 BKN048 71.6 71.6 100% 30.07 0.0
21 20:15 W 2 10.00 Partly Cloudy SCT031 SCT037 SCT049 71.6 71.6 100% 30.07 0.0
21 19:55 Vrbl 1 10.00 Fair CLR 71.6 71.6 87.4 70 100% 30.07 0.0
21 19:35 Vrbl 2 10.00 Fair CLR 71.6 71.6 100% 30.06 0.0
21 19:15 N 3 10.00 Fair CLR 71.6 71.6 100% 30.05 0.0
21 18:55 E 2 10.00 Light Rain CLR 71.6 71.6 100% 30.04 0.0 0.07
21 18:35 Vrbl 2 3.00 Light Rain Fog/Mist CLR 71.6 71.6 100% 30.04 0.0
21 18:15 S 5 8.00 Light Rain CLR 69.8 69.8 100% 30.05 0.0
21 17:55 Vrbl 2 4.00 Light Rain Fog/Mist CLR 69.8 69.8 100% 30.05 0.0 0.3
21 17:35 S 3 3.00 Light Rain Fog/Mist FEW003 FEW075 SCT090 69.8 69.8 100% 30.06 0.0
21 17:15 Vrbl 3 1.25 Light Rain Fog/Mist BKN003 BKN013 OVC090 69.8 69.8 100% 30.07 0.0
21 16:55 NW 7 0.25 Thunderstorm Heavy Rain Fog OVC003 71.6 71.6 100% 30.11 0.0 0.58
21 16:35 N 9 1.75 Thunderstorm in Vicinity Rain Fog/Mist SCT018 BKN025 OVC030 73.4 73.4 100% 30.09 0.0
21 16:15 NE 12 G 17 2.00 Thunderstorm Light Rain Fog/Mist SCT018 OVC025 75.2 73.4 94% 74 30.05 0.0
21 15:55 Vrbl 2 10.00 Thunderstorm in Vicinity SCT042 BKN050 BKN070 84.2 75.2 74% 92 30.03 0.0
21 15:35 S 10 10.00 Thunderstorm in Vicinity SCT038 SCT043 BKN050 86 75.2 70% 95 30.02 0.0
21 15:15 SE 8 10.00 Thunderstorm in Vicinity FEW038 SCT043 87.8 75.2 66% 98 30.02 0.0
21 14:55 SE 9 10.00 Fair CLR 87.8 75.2 66% 98 30.03 0.0
21 14:35 S 8 10.00 Partly Cloudy FEW029 SCT039 SCT060 86 75.2 70% 95 30.04 0.0
21 14:15 S 5 10.00 Overcast SCT030 BKN035 OVC042 86 75.2 70% 95 30.04 0.0
21 13:55 Vrbl 6 10.00 Mostly Cloudy SCT039 BKN045 BKN060 86 75.2 88.5 73.6 70% 95 30.06 0.0
21 13:35 Vrbl 1 10.00 A Few Clouds FEW028 FEW035 87.8 73.4 62% 96 30.07 0.0
21 13:15 SW 7 10.00 Partly Cloudy FEW025 SCT032 SCT045 86 75.2 70% 95 30.08 0.0
21 12:55 SW 7 10.00 Partly Cloudy SCT021 SCT033 SCT045 84.2 75.2 74% 92 30.09 0.0
21 12:35 Vrbl 5 10.00 Mostly Cloudy BKN019 BKN024 84.2 75.2 74% 92 30.1 0.0
21 12:15 SW 6 10.00 Thunderstorm in Vicinity SCT017 SCT024 82.4 75.2 79% 89 30.09 0.0
21 11:55 Vrbl 2 10.00 Mostly Cloudy BKN015 BKN024 80.6 77 89% 87 30.1 0.0
21 11:35 SW 5 10.00 Mostly Cloudy FEW010 BKN017 BKN026 78.8 77 94% 83 30.11 0.0
21 11:15 S 6 10.00 Overcast FEW007 BKN015 OVC021 78.8 77 94% 83 30.1 0.0
21 10:55 SW 5 10.00 Overcast SCT007 OVC013 77 77 100% 78 30.1 0.0
21 10:35 Vrbl 3 8.00 Light Rain SCT007 OVC012 77 77 100% 78 30.1 0.0
21 10:15 S 5 10.00 Overcast BKN009 OVC016 77 75.2 94% 78 30.1 0.0
21 09:55 Vrbl 6 10.00 Light Rain BKN004 OVC012 77 77 100% 78 30.1 0.0
21 09:35 S 3 7.00 Light Rain Fog/Mist OVC002 75.2 75.2 100% 73 30.1 0.0
21 09:15 S 6 6.00 Fog/Mist OVC002 75.2 75.2 100% 73 30.1 0.0
21 08:35 Vrbl 3 5.00 Fog/Mist OVC002 73.4 73.4 100% 30.11 0.0
21 08:15 S 5 4.00 Fog/Mist OVC002 73.4 73.4 100% 30.11 0.0
21 07:55 S 5 3.00 Fog/Mist OVC002 73.4 73.4 74.1 73.2 100% 30.1 0.0 0.01
21 07:35 S 5 4.00 Fog/Mist OVC002 73.4 73.4 100% 30.1 0.0
21 07:15 Vrbl 7 2.50 Fog/Mist OVC002 73.4 73.4 100% 30.09 0.0
21 06:55 S 5 1.00 Light Rain Fog/Mist OVC002 73.4 73.4 100% 30.1 0.0 0.04
21 06:35 Vrbl 3 2.00 Light Rain Fog/Mist OVC002 73.4 73.4 100% 30.09 0.0
21 06:15 S 5 3.00 Fog/Mist OVC002 73.4 73.4 100% 30.09 0.0
21 05:55 S 5 0.50 Light Drizzle Fog OVC002 73.4 73.4 100% 30.08 0.0
21 05:35 S 3 0.25 Fog OVC002 73.4 73.4 100% 30.08 0.0
21 05:15 S 6 0.25 Fog OVC002 73.4 73.4 100% 30.08 0.0
21 04:55 S 7 0.75 Fog/Mist OVC002 73.4 73.4 100% 30.08 0.0 0.01
21 04:35 S 6 6.00 Fog/Mist OVC002 73.4 73.4 100% 30.08 0.0
21 04:15 S 6 1.75 Light Rain Fog/Mist OVC002 73.4 73.4 100% 30.09 0.0
21 03:55 S 6 1.00 Light Drizzle Fog/Mist OVC002 73.4 73.4 100% 30.09 0.0
21 03:35 S 6 3.00 Fog/Mist OVC002 73.4 73.4 100% 30.09 0.0
21 03:15 S 5 0.50 Fog OVC002 73.4 73.4 100% 30.09 0.0
21 02:55 S 6 2.50 Fog/Mist OVC002 73.4 73.4 100% 30.09 0.0
21 02:35 S 6 2.50 Fog/Mist OVC002 73.4 73.4 100% 30.1 0.0
21 02:15 SW 5 1.00 Fog/Mist OVC002 73.4 73.4 100% 30.1 0.0
21 01:55 Vrbl 6 0.15 Fog OVC002 73.4 73.4 77.7 73 100% 30.11 0.0
21 01:35 Vrbl 5 0.15 Fog OVC002 73.4 73.4 100% 30.11 0.0
21 01:15 S 5 0.50 Fog OVC002 73.4 73.4 100% 30.11 0.0
21 00:55 S 8 1.00 Fog/Mist OVC002 73.4 73.4 100% 30.11 0.0
21 00:35 S 8 10.00 Overcast OVC004 73.4 73.4 100% 30.1 0.0
21 00:15 S 5 10.00 Overcast OVC004 73.4 73.4 100% 30.1 0.0
20 23:55 Vrbl 6 10.00 Overcast OVC006 73.4 73.4 100% 30.11 0.0
20 23:35 S 6 10.00 Overcast OVC006 73.4 73.4 100% 30.11 0.0
20 23:15 SE 6 10.00 Overcast BKN006 OVC027 73.4 73.4 100% 30.12 0.0
20 22:55 S 5 10.00 Mostly Cloudy BKN006 BKN028 BKN032 75.2 75.2 100% 73 30.12 0.0
20 22:35 S 7 10.00 Mostly Cloudy BKN006 BKN021 75.2 75.2 100% 73 30.12 0.0
20 22:15 S 6 10.00 Overcast OVC006 75.2 75.2 100% 73 30.12 0.0
20 21:55 S 7 10.00 Mostly Cloudy BKN008 BKN025 75.2 75.2 100% 73 30.11 0.0
20 21:35 SE 3 10.00 Mostly Cloudy SCT008 BKN025 75.2 75.2 100% 73 30.11 0.0
20 21:15 SE 5 10.00 Fair CLR 75.2 75.2 100% 73 30.09 0.0
20 20:55 SE 2 10.00 Fair CLR 75.2 75.2 100% 73 30.08 0.0
20 20:35 S 3 10.00 Fair CLR 77 75.2 94% 78 30.08 0.0
20 20:15 S 3 10.00 Fair CLR 77 75.2 94% 78 30.07 0.0
20 19:55 SW 5 10.00 A Few Clouds FEW050 77 75.2 80.2 72.9 94% 78 30.08 0.0
20 19:35 S 5 10.00 Fair CLR 78.8 75.2 89% 82 30.08 0.0
20 19:15 S 5 10.00 A Few Clouds FEW015 78.8 75.2 89% 82 30.08 0.0
20 18:55 Vrbl 5 10.00 Partly Cloudy SCT015 78.8 75.2 89% 82 30.08 0.0
20 18:35 S 8 10.00 A Few Clouds FEW013 80.6 75.2 84% 86 30.08 0.0
20 18:15 S 6 10.00 Fair CLR 78.8 75.2 89% 82 30.08 0.0
20 17:55 Vrbl 6 10.00 Fair CLR 78.8 75.2 89% 82 30.09 0.0
20 17:35 S 7 10.00 Fair CLR 77 73.4 89% 78 30.09 0.0
20 17:15 SE 6 10.00 Fair CLR 75.2 73.4 94% 74 30.1 0.0
20 16:55 S 6 10.00 Fair CLR 75.2 73.4 94% 74 30.1 0.0
20 16:35 Vrbl 3 10.00 Fair CLR 75.2 73.4 94% 74 30.1 0.0
20 16:15 S 3 10.00 Fair CLR 75.2 73.4 94% 74 30.1 0.0
20 15:55 E 3 10.00 Light Rain CLR 73.4 73.4 100% 30.09 0.0 0.01
20 15:35 SE 3 10.00 Light Rain CLR 73.4 73.4 100% 30.1 0.0
20 15:15 SW 5 10.00 Fair CLR 73.4 73.4 100% 30.12 0.0
20 14:55 S 6 10.00 Light Rain CLR 73.4 73.4 100% 30.13 0.0 0.05
20 14:35 S 7 10.00 Light Rain FEW065 FEW085 75.2 73.4 94% 74 30.13 0.0
Date Time (edt) Wind (mph) Vis. (mi.) Weather Sky Cond. Air Dwpt Max. Min. Relative Humidity Wind Chill (°F) Heat Index (°F) altimeter (in) sea level (mb) 1 hr 3 hr 6 hr
6 hour
Temperature (ºF) Pressure Precipitation (in)